GW2041 Weather Reports


Display with metric or nautical units.
time (UTC)temp
F
wind
direction
speed
MPH
gust
MPH
rain 1hr
in
rain 24hr
in
rain mn
in
humidity
%
barometer
mb
20260506040321 47 23 0.0 2.0 0.00 0.11 0.11 96 1004.6
20260506035315 47 23 0.0 0.0 0.03 0.11 0.11 96 1004.8
20260506034315 47 0 0.0 2.0 0.03 0.11 0.11 96 1004.8
20260506033319 47 315 0.0 2.0 0.03 0.11 0.11 96 1004.9
20260506032750 47 0 0.0 0.0 0.03 0.11 0.11 96 1004.9
20260506031304 47 23 0.0 1.0 0.06 0.11 0.11 96 1005.0
20260506030305 47 45 0.0 0.0 0.06 0.11 0.11 96 1005.0
20260506025305 47 23 0.0 2.0 0.03 0.08 0.08 96 1005.1
20260506024301 47 45 0.0 3.0 0.03 0.08 0.08 96 1005.1
20260506023302 47 338 0.0 3.0 0.03 0.08 0.08 96 1005.4
20260506022305 47 0 0.0 1.0 0.03 0.08 0.08 96 1005.4
20260506020737 48 68 0.0 2.0 0.02 0.05 0.05 95 1005.5
20260506015250 48 338 0.0 2.0 0.05 0.05 0.05 95 1005.7
20260506014721 48 45 0.0 3.0 0.05 0.05 0.05 95 1005.7
20260506013247 48 315 0.0 2.0 0.05 0.05 0.05 95 1005.8
20260506012731 48 68 0.0 4.0 0.05 0.05 0.05 95 1005.8
20260506011247 48 45 0.0 3.0 0.03 0.03 0.03 95 1005.8
20260506010249 48 45 0.0 3.0 0.03 0.03 0.03 94 1005.8
20260506005726 48 23 0.0 2.0 0.00 0.00 0.00 94 1006.2
20260506004248 48 23 0.0 0.0 0.00 0.00 0.00 94 1006.2
20260506003249 48 23 0.0 1.0 0.00 0.00 0.00 94 1006.4
20260506002247 48 23 0.0 1.0 0.00 0.00 0.00 94 1006.4
20260506001247 48 23 0.0 3.0 0.00 0.00 0.00 93 1006.6
20260506000717 48 45 0.0 3.0 0.00 0.00 0.00 93 1006.6
20260505235234 48 113 0.0 2.0 0.00 0.00 0.00 93 1006.9
20260505234234 48 113 1.0 3.0 0.00 0.00 0.00 93 1006.9
20260505233235 48 180 0.0 2.0 0.00 0.00 0.00 93 1007.0
20260505232222 48 135 0.0 2.0 0.00 0.00 0.00 92 1007.0
20260505231707 48 180 0.0 2.0 0.00 0.00 0.00 92 1007.5
20260505230222 48 315 0.0 0.0 0.00 0.00 0.00 92 1007.5
20260505225221 48 315 1.0 2.0 0.00 0.00 0.00 92 1007.8
20260505224709 48 23 1.0 2.0 0.00 0.00 0.00 91 1007.8
20260505223216 48 135 0.0 2.0 0.00 0.00 0.00 91 1007.8
20260505222212 48 90 1.0 5.0 0.00 0.00 0.00 91 1007.8
20260505221208 49 0 1.0 2.0 0.00 0.00 0.00 90 1007.9
20260505220207 49 293 1.0 0.0 0.00 0.00 0.00 89 1007.9
20260505215322 49 23 2.0 7.0 0.00 0.00 0.35 90 1008.1
20260505214320 49 158 1.0 3.0 0.00 0.00 0.35 90 1008.1
20260505213320 49 293 1.0 3.0 0.00 0.00 0.35 89 1008.2
20260505212312 49 68 1.0 3.0 0.00 0.00 0.35 89 1008.2
20260505211308 50 338 1.0 4.0 0.00 0.00 0.35 88 1008.3
20260505210308 50 23 1.0 4.0 0.00 0.00 0.35 88 1008.3
20260505205308 50 23 1.0 2.0 0.00 0.00 0.35 88 1008.3
20260505204309 51 315 1.0 4.0 0.00 0.00 0.35 88 1008.3
20260505202307 51 158 0.0 2.0 0.00 0.00 0.35 88 1008.3
20260505200307 51 225 0.0 3.0 0.00 0.00 0.35 87 1008.2
20260505195306 51 248 0.0 3.0 0.00 0.00 0.35 87 1008.2
20260505193306 51 23 0.0 4.0 0.00 0.00 0.35 87 1008.0
20260505192307 51 293 0.0 0.0 0.00 0.00 0.35 87 1008.0
20260505191745 52 45 0.0 3.0 0.00 0.00 0.35 87 1007.9
20260505190737 51 23 0.0 2.0 0.00 0.00 0.35 87 1007.9
20260505185254 52 23 0.0 2.0 0.00 0.00 0.35 87 1008.0
20260505184735 52 23 0.0 2.0 0.00 0.00 0.35 87 1008.0
20260505183253 52 23 0.0 2.0 0.00 0.00 0.35 88 1008.1
20260505182255 52 23 0.0 2.0 0.00 0.00 0.35 88 1008.1
20260505181253 52 23 0.0 0.0 0.00 0.00 0.35 88 1007.8
20260505180253 52 293 0.0 0.0 0.00 0.00 0.35 88 1007.8
20260505175252 52 315 0.0 2.0 0.00 0.00 0.35 88 1007.8
20260505174239 52 338 0.0 2.0 0.00 0.00 0.35 88 1007.8
20260505172241 53 23 0.0 2.0 0.00 0.00 0.35 88 1008.1
20260505171241 53 270 0.0 1.0 0.00 0.00 0.35 89 1008.0
20260505170239 53 23 0.0 0.0 0.00 0.00 0.35 89 1008.0
20260505165240 52 45 0.0 1.0 0.00 0.00 0.35 89 1008.0
20260505164223 53 45 0.0 0.0 0.00 0.00 0.35 88 1008.0
20260505163212 53 23 0.0 2.0 0.00 0.00 0.35 89 1008.3
20260505162209 53 23 0.0 2.0 0.00 0.00 0.35 89 1008.3
20260505161208 53 23 0.0 0.0 0.00 0.00 0.35 89 1008.2
20260505160222 53 338 0.0 0.0 0.00 0.00 0.35 89 1008.2
20260505153206 53 315 1.0 0.0 0.00 0.00 0.35 89 1008.3
20260505152253 53 338 0.0 2.0 0.00 0.00 0.35 89 1008.3
20260505151255 53 45 0.0 3.0 0.00 0.00 0.35 89 1008.1
20260505150739 53 315 1.0 3.0 0.00 0.00 0.35 89 1008.1
20260505140229 53 23 1.0 6.0 0.00 0.00 0.35 89 1008.3
20260505124221 52 23 1.0 7.0 0.00 0.00 0.35 93 1008.8
20260505123225 51 338 2.0 6.0 0.00 0.00 0.35 93 1008.7
20260505122650 51 45 1.0 4.0 0.00 0.00 0.35 93 1008.7
20260505121214 51 23 2.0 4.0 0.00 0.00 0.35 93 1008.9
20260505120221 51 45 2.0 7.0 0.00 0.00 0.35 93 1008.9
20260505115215 51 315 2.0 5.0 0.00 0.00 0.35 93 1008.9
20260505113219 50 23 0.0 2.0 0.00 0.00 0.35 93 1009.1
20260505112709 50 23 1.0 4.0 0.00 0.00 0.35 94 1009.1
20260505111642 50 23 0.0 1.0 0.00 0.00 0.35 94 1009.0
20260505110208 50 45 1.0 4.0 0.00 0.00 0.35 94 1009.0
20260505101300 49 0 2.0 3.0 0.00 0.03 0.35 95 1009.3
20260505100303 49 248 1.0 1.0 0.00 0.03 0.35 95 1009.3
20260505095258 49 293 2.0 4.0 0.00 0.03 0.35 95 1009.3
20260505094258 49 225 2.0 5.0 0.00 0.03 0.35 96 1009.3
20260505093249 49 45 2.0 5.0 0.00 0.03 0.35 96 1009.3
20260505092244 48 0 1.0 4.0 0.00 0.03 0.35 96 1009.3
20260505091724 48 90 2.0 3.0 0.00 0.03 0.35 96 1009.5
20260505090248 48 338 2.0 5.0 0.00 0.03 0.35 96 1009.5
20260505085244 48 135 2.0 5.0 0.00 0.03 0.35 96 1009.5
20260505084244 47 338 1.0 4.0 0.00 0.03 0.35 96 1009.5
20260505083247 47 135 1.0 3.0 0.00 0.03 0.35 96 1009.5
20260505082246 47 23 1.0 2.0 0.00 0.03 0.35 96 1009.5
20260505081229 47 338 1.0 4.0 0.00 0.03 0.35 96 1009.6
20260505080232 47 68 1.0 3.0 0.00 0.03 0.35 96 1009.6
20260505075229 47 68 1.0 7.0 0.00 0.03 0.35 96 1009.5
20260505074231 47 248 1.0 3.0 0.00 0.03 0.35 96 1009.5
20260505073230 47 338 0.0 3.0 0.03 0.03 0.35 96 1009.6
20260505072232 47 45 1.0 2.0 0.03 0.03 0.35 96 1009.6
20260505071230 47 45 1.0 3.0 0.03 0.03 0.35 96 1009.6
20260505070232 46 338 2.0 7.0 0.03 0.03 0.35 96 1009.6
20260505065232 46 45 0.0 3.0 0.03 0.03 0.35 96 1010.1
20260505064216 46 315 1.0 6.0 0.03 0.03 0.35 96 1010.1
20260505063217 46 23 2.0 8.0 0.00 0.00 0.33 96 1009.6
20260505062217 47 113 2.0 5.0 0.00 0.00 0.33 96 1009.6
20260505061203 47 338 1.0 4.0 0.00 0.00 0.33 96 1009.5
20260505060206 46 0 1.0 4.0 0.00 0.00 0.33 96 1009.5
20260505055202 47 23 2.0 4.0 0.00 0.00 0.33 96 1009.8
20260505054200 46 23 0.0 3.0 0.00 0.00 0.33 96 1009.8
20260505053205 46 315 0.0 4.0 0.00 0.00 0.33 96 1009.6
20260505052203 46 23 1.0 5.0 0.00 0.00 0.33 96 1009.6
20260505051646 46 270 2.0 5.0 0.00 0.00 0.33 96 1009.5
20260505050208 46 45 1.0 3.0 0.00 0.00 0.33 96 1009.5
20260505041313 47 0 1.0 2.0 0.03 0.30 0.30 96 1009.6